Weather History for Perry, IA

Change the Weather History Date:

Tuesday, November 15, 2011

  Actual Average Record
Temperature  
Mean Temperature 44 °F -  
Max Temperature 55 °F 46 °F 74 °F (1990)
Min Temperature 33 °F 26 °F 5 °F (1959)
Degree Days  
Heating Degree Days 21    
Moisture  
Dew Point 28 °F    
Average Humidity 54    
Maximum Humidity 87    
Minimum Humidity 29    
Precipitation  
Precipitation 0.00 in - - ()
Sea Level Pressure  
Sea Level Pressure 29.75 in    
Wind  
Wind Speed 11 mph (West)    
Max Wind Speed 18 mph    
Max Gust Speed 24 mph    
Visibility 10 miles    
Events      
Averages and records for this station are not official NWS values.
T = Trace of Precipitation, MM = Missing Value Source: NWS Daily Summary

Daily Weather History Graph

Daily Weather History Graph

Search for Another Location

Airport:

Trip Planner

Search our weather history database for the weather conditions in past years. The results will help you decide how hot, cold, wet, or windy it might be!

Date:

Astronomy

Nov. 15, 2011 Rise Set
Actual Time 7:05 AM CST 4:56 PM CST
Civil Twilight 6:35 AM CST 5:26 PM CST
Nautical Twilight 6:02 AM CST 5:59 PM CST
Astronomical Twilight 5:29 AM CST 6:32 PM CST
Moon 9:05 PM CST (11/15) 11:06 AM CST (11/15)
Length of Visible Light 10h 50m
Length of Day
9h 50m
Waning Gibbous, 79% of the Moon is Illuminated
Nov 15
Waning Gibbous
Nov 18
Last Quarter
Nov 25
New
Dec 2
First Quarter
Dec 10
Full

Hourly Weather History & Observations

Time (CST) Temp. Windchill Dew Point Humidity Pressure Visibility Wind Dir Wind Speed Gust Speed Precip Events Conditions
12:15 AM 33.8 °F 27.0 °F 30.2 °F 87% 29.66 in 10.0 mi SSE 8.1 mph - N/A   Clear
12:35 AM 33.8 °F 27.0 °F 30.2 °F 87% 29.65 in 10.0 mi SE 8.1 mph - N/A   Clear
12:55 AM 35.6 °F 29.2 °F 32.0 °F 87% 29.64 in 10.0 mi SSE 8.1 mph - N/A   Clear
1:15 AM 35.6 °F 28.0 °F 32.0 °F 87% 29.62 in 10.0 mi SSE 10.4 mph - N/A   Clear
1:35 AM 35.6 °F 27.5 °F 32.0 °F 87% 29.62 in 10.0 mi SSE 11.5 mph - N/A   Clear
1:55 AM 39.2 °F 31.6 °F 32.0 °F 75% 29.62 in 10.0 mi South 12.7 mph - N/A   Clear
2:35 AM 41.0 °F 34.3 °F 33.8 °F 76% 29.61 in 10.0 mi South 11.5 mph - N/A   Scattered Clouds
2:55 AM 41.0 °F 34.7 °F 32.0 °F 70% 29.60 in 10.0 mi SSE 10.4 mph - N/A   Scattered Clouds
3:15 AM 41.0 °F 33.5 °F 32.0 °F 70% 29.60 in 10.0 mi South 13.8 mph - N/A   Scattered Clouds
3:35 AM 41.0 °F 33.9 °F 32.0 °F 70% 29.58 in 10.0 mi South 12.7 mph - N/A   Clear
3:55 AM 41.0 °F 33.9 °F 32.0 °F 70% 29.57 in 10.0 mi South 12.7 mph - N/A   Clear
4:35 AM 42.8 °F 35.8 °F 32.0 °F 66% 29.59 in 10.0 mi SSW 13.8 mph - N/A   Scattered Clouds
4:55 AM 42.8 °F 35.8 °F 32.0 °F 66% 29.59 in 10.0 mi SSW 13.8 mph - N/A   Clear
5:15 AM 42.8 °F 35.8 °F 32.0 °F 66% 29.59 in 10.0 mi SSW 13.8 mph - N/A   Clear
5:35 AM 42.8 °F 36.2 °F 32.0 °F 66% 29.60 in 10.0 mi SSW 12.7 mph - N/A   Clear
5:55 AM 42.8 °F 36.2 °F 32.0 °F 66% 29.61 in 10.0 mi SW 12.7 mph - N/A   Clear
7:15 AM 41.0 °F 34.7 °F 32.0 °F 70% 29.64 in 10.0 mi WSW 10.4 mph - N/A   Clear
7:35 AM 39.2 °F 33.6 °F 32.0 °F 75% 29.65 in 10.0 mi SW 8.1 mph - N/A   Clear
8:15 AM 42.8 °F 39.3 °F 33.8 °F 70% 29.67 in 10.0 mi SW 5.8 mph - N/A   Clear
9:15 AM 44.6 °F 38.8 °F 33.8 °F 66% 29.69 in 10.0 mi West 11.5 mph - N/A   Clear
9:35 AM 46.4 °F 42.4 °F 33.8 °F 62% 29.69 in 10.0 mi WNW 8.1 mph - N/A   Clear
9:55 AM 46.4 °F 41.5 °F 33.8 °F 62% 29.70 in 10.0 mi WNW 10.4 mph - N/A   Clear
10:15 AM 48.2 °F - 32.0 °F 54% 29.71 in 10.0 mi WNW 10.4 mph - N/A   Clear
10:35 AM 50.0 °F - 32.0 °F 50% 29.72 in 10.0 mi NW 9.2 mph - N/A   Clear
10:55 AM 50.0 °F - 32.0 °F 50% 29.74 in 10.0 mi WNW 8.1 mph - N/A   Clear
11:15 AM 51.8 °F - 32.0 °F 47% 29.74 in 10.0 mi NW 9.2 mph - N/A   Clear
11:35 AM 53.6 °F - 30.2 °F 41% 29.74 in 10.0 mi NW 11.5 mph - N/A   Clear
11:55 AM 55.4 °F - 30.2 °F 38% 29.75 in 10.0 mi NW 9.2 mph - N/A   Clear
12:15 PM 55.4 °F - 26.6 °F 33% 29.74 in 10.0 mi NW 12.7 mph - N/A   Clear
12:35 PM 55.4 °F - 23.0 °F 29% 29.75 in 10.0 mi NW 15.0 mph - N/A   Clear
12:55 PM 55.4 °F - 23.0 °F 29% 29.75 in 10.0 mi NW 11.5 mph - N/A   Clear
1:15 PM 55.4 °F - 23.0 °F 29% 29.76 in 10.0 mi NW 9.2 mph - N/A   Clear
1:35 PM 55.4 °F - 23.0 °F 29% 29.76 in 10.0 mi WNW 13.8 mph 19.6 mph N/A   Clear
1:55 PM 55.4 °F - 23.0 °F 29% 29.76 in 10.0 mi WNW 17.3 mph - N/A   Clear
2:15 PM 55.4 °F - 23.0 °F 29% 29.77 in 10.0 mi NNW 15.0 mph 21.9 mph N/A   Clear
2:35 PM 55.4 °F - 26.6 °F 33% 29.77 in 10.0 mi WNW 13.8 mph - N/A   Clear
2:55 PM 55.4 °F - 26.6 °F 33% 29.78 in 10.0 mi WNW 15.0 mph 19.6 mph N/A   Clear
3:15 PM 53.6 °F - 26.6 °F 35% 29.79 in 10.0 mi WNW 15.0 mph - N/A   Unknown
3:35 PM 53.6 °F - 26.6 °F 35% 29.80 in 10.0 mi WNW 18.4 mph 24.2 mph N/A   Clear
3:55 PM 51.8 °F - 26.6 °F 38% 29.81 in 10.0 mi WNW 11.5 mph - N/A   Clear
4:15 PM 51.8 °F - 26.6 °F 38% 29.82 in 10.0 mi WNW 13.8 mph 19.6 mph N/A   Clear
4:35 PM 50.0 °F - 26.6 °F 40% 29.83 in 10.0 mi WNW 8.1 mph - N/A   Clear
4:55 PM 48.2 °F - 26.6 °F 43% 29.85 in 10.0 mi WNW 9.2 mph - N/A   Clear
5:15 PM 46.4 °F 41.9 °F 26.6 °F 46% 29.86 in 10.0 mi WNW 9.2 mph - N/A   Clear
5:35 PM 44.6 °F 39.2 °F 26.6 °F 49% 29.87 in 10.0 mi WNW 10.4 mph - N/A   Clear
5:55 PM 44.6 °F 40.2 °F 26.6 °F 49% 29.89 in 10.0 mi WNW 8.1 mph - N/A   Clear
6:15 PM 42.8 °F 37.0 °F 24.8 °F 49% 29.90 in 10.0 mi WNW 10.4 mph - N/A   Clear
6:35 PM 42.8 °F 36.6 °F 23.0 °F 46% 29.92 in 10.0 mi WNW 11.5 mph - N/A   Clear
6:55 PM 42.8 °F 36.6 °F 23.0 °F 46% 29.93 in 10.0 mi NW 11.5 mph - N/A   Clear
7:15 PM 41.0 °F 34.3 °F 23.0 °F 49% 29.94 in 10.0 mi NW 11.5 mph - N/A   Clear
7:35 PM 41.0 °F 34.7 °F 23.0 °F 49% 29.95 in 10.0 mi NW 10.4 mph - N/A   Clear
7:55 PM 41.0 °F 34.3 °F 23.0 °F 49% 29.96 in 10.0 mi NW 11.5 mph - N/A   Clear
8:15 PM 37.4 °F 30.3 °F 23.0 °F 56% 29.97 in 10.0 mi NW 10.4 mph - N/A   Clear
8:35 PM 37.4 °F 28.9 °F 21.2 °F 52% 29.98 in 10.0 mi NW 13.8 mph 17.3 mph N/A   Clear
8:55 PM 37.4 °F 29.3 °F 21.2 °F 52% 29.99 in 10.0 mi NW 12.7 mph - N/A   Clear
9:15 PM 35.6 °F 28.6 °F 21.2 °F 56% 30.00 in 10.0 mi NW 9.2 mph - N/A   Clear
9:35 PM 35.6 °F 28.0 °F 21.2 °F 56% 30.00 in 10.0 mi NW 10.4 mph - N/A   Clear
9:55 PM 35.6 °F 29.2 °F 21.2 °F 56% 30.01 in 10.0 mi NW 8.1 mph - N/A   Clear
10:15 PM 33.8 °F 27.0 °F 21.2 °F 60% 30.02 in 10.0 mi NW 8.1 mph - N/A   Clear
10:35 PM 32.0 °F 26.4 °F 21.2 °F 64% 30.01 in 10.0 mi NW 5.8 mph - N/A   Clear
10:55 PM 32.0 °F 27.5 °F 19.4 °F 60% 30.02 in 10.0 mi WNW 4.6 mph - N/A   Clear
11:15 PM 30.2 °F 22.6 °F 19.4 °F 64% 30.03 in 10.0 mi West 8.1 mph - N/A   Clear
11:35 PM 30.2 °F 25.4 °F 21.2 °F 69% 30.02 in 10.0 mi WNW 4.6 mph - N/A   Clear